Location: Calvin Observatory
(42.9309°N, 85.5886°W)
Time: 07:50:41
(UTC-04:00)

ISS - Visible Passes

Search period start: 30 September 2014 00:00
Search period end: 10 October 2014 00:00
Orbit: 413 x 416 km, 51.6° (Epoch: 30 September)

Date Brightness Start Highest point End Pass type
(mag) Time Alt. Az. Time Alt. Az. Time Alt. Az.
30 Sep 0.1 04:51:46 12° E 04:51:46 12° E 04:52:05 10° E visible
30 Sep -2.8 06:24:40 30° W 06:25:47 41° SW 06:28:56 10° SSE visible
01 Oct -1.6 05:38:22 28° SE 05:38:22 28° SE 05:40:04 10° SE visible
02 Oct -1.2 06:25:08 14° SSW 06:25:08 14° SSW 06:26:09 10° S visible
05 Oct -1.3 20:36:51 10° S 20:38:14 17° SSE 20:38:14 17° SSE visible
06 Oct -1.1 19:49:16 10° SSE 19:50:18 11° SE 19:51:21 10° ESE visible
06 Oct -1.2 21:23:10 10° SW 21:24:37 24° SW 21:24:37 24° SW visible
07 Oct -3.1 20:34:05 10° SW 20:37:18 50° SE 20:37:54 43° ESE visible
08 Oct -2.2 19:45:14 10° SSW 19:48:09 28° SE 19:51:00 10° ENE visible
08 Oct -1.6 21:21:33 10° W 21:23:52 33° WNW 21:23:52 33° WNW visible
09 Oct -3.0 20:32:05 10° WSW 20:35:23 65° NNW 20:36:49 30° NE visible
